Location: Arborea
(39.7744°N, 8.5819°E)
Time: 11:05:00
(UTC+00:00)

Cosmos 1000 Rocket - Pass Details

Date: 06 June 2022
Orbit: 952 x 993 km, 82.9° (Epoch: 02 July)

Event Time Altitude Azimuth Distance (km) Brightness Sun altitude
Rises 03:19:23 0° 162° (SSE) 3,685 7.3 -7.0°
Reaches altitude 10° 03:22:03 10° 155° (SSE) 2,737 6.7 -6.6°
Maximum altitude 03:27:48 39° 89° (E) 1,436 6.0 -5.7°
Drops below altitude 10° 03:33:30 10° 23° (NNE) 2,729 7.9 -4.8°
Sets 03:36:09 0° 16° (NNE) 3,674 8.4 -4.4°
